Weather History for Minneapolis Flying Cloud, MN

Change the Weather History Date:

Tuesday, January 1, 2013

  Actual Average Record
Temperature  
Mean Temperature 5 °F -  
Max Temperature 19 °F 24 °F 42 °F (1998)
Min Temperature -9 °F 9 °F -9 °F (2013)
Degree Days  
Heating Degree Days 60    
Moisture  
Dew Point 0 °F    
Average Humidity 79    
Maximum Humidity 87    
Minimum Humidity 67    
Precipitation  
Precipitation 0.00 in - - ()
Sea Level Pressure  
Sea Level Pressure 30.21 in    
Wind  
Wind Speed 4 mph (SSW)    
Max Wind Speed 10 mph    
Max Gust Speed -    
Visibility 10 miles    
Events      
Averages and records for this station are not official NWS values.
T = Trace of Precipitation, MM = Missing Value Source: NWS Daily Summary

Daily Weather History Graph

Daily Weather History Graph

Search for Another Location

Airport:

Trip Planner

Search our weather history database for the weather conditions in past years. The results will help you decide how hot, cold, wet, or windy it might be!

Date:

Astronomy

Jan. 01, 2013 Rise Set
Actual Time 7:51 AM CST 4:43 PM CST
Civil Twilight 7:18 AM CST 5:17 PM CST
Nautical Twilight 6:41 AM CST 5:54 PM CST
Astronomical Twilight 6:05 AM CST 6:29 PM CST
Moon 9:28 PM CST (1/1) 9:52 AM CST (1/1)
Length of Visible Light 9h 59m
Length of Day
8h 52m
Waning Gibbous, 83% of the Moon is Illuminated
Jan 1
Waning Gibbous
Jan 4
Last Quarter
Jan 11
New
Jan 18
First Quarter
Jan 26
Full

Hourly Weather History & Observations

Time (CST) Temp. Windchill Dew Point Humidity Pressure Visibility Wind Dir Wind Speed Gust Speed Precip Events Conditions
12:53 AM -4.0 °F - -9.0 °F 79% 30.32 in 10.0 mi Calm Calm - N/A   Clear
1:53 AM -5.1 °F - -9.0 °F 83% 30.32 in 10.0 mi Calm Calm - N/A   Clear
2:53 AM -9.0 °F -20.4 °F -13.0 °F 83% 30.33 in 10.0 mi WSW 4.6 mph - N/A   Clear
3:53 AM -8.0 °F - -11.9 °F 83% 30.33 in 10.0 mi Calm Calm - N/A   Clear
4:53 AM -9.0 °F -22.3 °F -13.0 °F 83% 30.33 in 10.0 mi SW 5.8 mph - N/A   Clear
5:53 AM -8.0 °F -16.9 °F -13.0 °F 79% 30.35 in 10.0 mi WSW 3.5 mph - N/A   Clear
6:53 AM -9.9 °F -23.4 °F -15.0 °F 78% 30.34 in 10.0 mi SW 5.8 mph - N/A   Clear
7:14 AM -9.4 °F -18.6 °F -14.8 °F 77% 30.25 in 10.0 mi SW 3.5 mph - N/A   Partly Cloudy
7:50 AM -9.4 °F -18.6 °F -14.8 °F 77% 30.24 in 10.0 mi WSW 3.5 mph - N/A   Mostly Cloudy
7:53 AM -9.0 °F -20.4 °F -13.0 °F 83% 30.32 in 10.0 mi WSW 4.6 mph - N/A   Mostly Cloudy
8:49 AM -7.6 °F -16.5 °F -11.2 °F 84% 30.24 in 10.0 mi SW 3.5 mph - N/A   Scattered Clouds
8:53 AM -7.1 °F -18.1 °F -11.0 °F 83% 30.31 in 10.0 mi SW 4.6 mph - N/A   Scattered Clouds
9:53 AM -5.1 °F -13.6 °F -8.0 °F 87% 30.31 in 10.0 mi South 3.5 mph - N/A   Partly Cloudy
10:15 AM -2.2 °F -10.4 °F -5.8 °F 85% 30.23 in 10.0 mi South 3.5 mph - N/A   Mostly Cloudy
11:53 AM 3.9 °F -5.3 °F -2.0 °F 76% 30.26 in 10.0 mi SSW 4.6 mph - N/A   Overcast
12:44 PM 6.8 °F - -0.4 °F 72% 30.17 in 10.0 mi Calm Calm - N/A   Overcast
12:53 PM 6.1 °F -0.9 °F -0.9 °F 73% 30.24 in 10.0 mi SW 3.5 mph - N/A   Overcast
1:08 PM 8.6 °F 2.0 °F -0.4 °F 67% 30.16 in 10.0 mi SSW 3.5 mph - N/A   Overcast
1:51 PM 10.4 °F -2.4 °F 3.2 °F 73% 30.15 in 10.0 mi SSW 9.2 mph - N/A   Overcast
1:53 PM 10.0 °F -1.9 °F 3.0 °F 73% 30.22 in 10.0 mi SSW 8.1 mph - N/A   Overcast
2:53 PM 10.9 °F -1.8 °F 3.9 °F 73% 30.22 in 10.0 mi SW 9.2 mph - N/A   Overcast
3:28 PM 10.4 °F -0.4 °F 5.0 °F 79% 30.14 in 10.0 mi SW 6.9 mph - N/A   Overcast
3:53 PM 12.0 °F 2.7 °F 5.0 °F 73% 30.21 in 10.0 mi SSW 5.8 mph - N/A   Overcast
4:10 PM 12.2 °F 6.1 °F 6.8 °F 79% 30.13 in 10.0 mi SSW 3.5 mph - N/A   Overcast
4:53 PM 12.9 °F 6.9 °F 7.0 °F 77% 30.19 in 10.0 mi SSW 3.5 mph - N/A   Overcast
5:23 PM 14.0 °F 6.5 °F 8.6 °F 79% 30.11 in 10.0 mi SSW 4.6 mph - N/A   Overcast
5:53 PM 15.1 °F 7.7 °F 9.0 °F 77% 30.17 in 10.0 mi SSW 4.6 mph - N/A   Overcast
6:23 PM 15.8 °F 7.2 °F 10.4 °F 79% 30.10 in 10.0 mi SSW 5.8 mph - N/A   Overcast
6:49 PM 15.8 °F 7.2 °F 10.4 °F 79% 30.09 in 10.0 mi South 5.8 mph - N/A   Overcast
6:53 PM 16.0 °F 7.4 °F 10.0 °F 77% 30.16 in 10.0 mi South 5.8 mph - N/A   Overcast
7:53 PM 17.1 °F 6.6 °F 12.0 °F 81% 30.14 in 10.0 mi SSW 8.1 mph - N/A   Overcast
8:32 PM 17.6 °F 10.7 °F 12.2 °F 79% 30.06 in 10.0 mi SSW 4.6 mph - N/A   Overcast
8:53 PM 18.0 °F 9.8 °F 12.9 °F 81% 30.12 in 10.0 mi SW 5.8 mph - N/A   Overcast
9:53 PM 19.9 °F 11.1 °F 15.1 °F 81% 30.10 in 10.0 mi SW 6.9 mph - N/A   Overcast
10:53 PM 19.9 °F 9.3 °F 15.1 °F 81% 30.08 in 10.0 mi SSW 9.2 mph - N/A   Overcast
11:53 PM 19.9 °F 8.6 °F 15.1 °F 81% 30.07 in 10.0 mi SSW 10.4 mph - N/A   Overcast